This is the latest recevied weather packets stored in our database for station/object N1MCJ. If no packets are shown the sender has not sent any weather packets the latest 10 day(s).
| Time | Temp. | Humidity | Pressure | Rain* | Wind** | Luminosity | Snow |
|---|---|---|---|---|---|---|---|
| 1777948885 | 11.67° C | 78% | 1002.3 hPa | 0 mm | - | 0 W/m² | - |
| 1777947982 | 12.22° C | 76% | 1002.5 hPa | 0 mm | - | 0 W/m² | - |
| 1777947078 | 12.78° C | 74% | 1002.7 hPa | 0 mm | - | 0 W/m² | - |
| 1777946173 | 12.78° C | 74% | 1002.4 hPa | 0 mm | - | 0 W/m² | - |
| 1777945270 | 12.78° C | 74% | 1002.6 hPa | 0 mm | - | 0 W/m² | - |
| 1777944368 | 12.78° C | 73% | 1002.4 hPa | 0 mm | - | 0 W/m² | - |
| 1777943464 | 13.33° C | 72% | 1002.3 hPa | 0 mm | - | 0 W/m² | - |
| 1777942563 | 13.33° C | 71% | 1002.1 hPa | 0 mm | - | 0 W/m² | - |
| 1777941660 | 13.89° C | 69% | 1002 hPa | 0 mm | - | 0 W/m² | - |
| 1777940755 | 13.89° C | 68% | 1001.9 hPa | 0 mm | - | 0 W/m² | - |
| 1777939854 | 13.89° C | 66% | 1001.8 hPa | 0 mm | - | 0 W/m² | - |
| 1777938952 | 14.44° C | 64% | 1001.4 hPa | 0 mm | - | 0 W/m² | - |
| 1777938048 | 15° C | 61% | 1001.3 hPa | 0 mm | - | 3 W/m² | - |
| 1777937143 | 15.56° C | 59% | 1001.1 hPa | 0 mm | - | 10 W/m² | - |
| 1777936239 | 16.11° C | 56% | 1000.8 hPa | 0 mm | - | 19 W/m² | - |
| 1777935337 | 16.67° C | 54% | 1000.8 hPa | 0 mm | - | 29 W/m² | - |
| 1777934434 | 17.78° C | 52% | 1001.1 hPa | 0 mm | - | 38 W/m² | - |
| 1777933529 | 17.78° C | 52% | 1000.8 hPa | 0 mm | - | 45 W/m² | - |
| 1777932626 | 18.33° C | 51% | 1000.8 hPa | 0 mm | - | 56 W/m² | - |
| 1777931722 | 18.33° C | 51% | 1001 hPa | 0 mm | - | 226 W/m² | - |
| 1777930818 | 18.89° C | 50% | 1001 hPa | 0 mm | - | 277 W/m² | - |
| 1777929913 | 19.44° C | 48% | 1001 hPa | 0 mm | - | 136 W/m² | - |
| 1777929011 | 19.44° C | 47% | 1001.1 hPa | 0 mm | - | 403 W/m² | - |
| 1777928108 | 19.44° C | 46% | 1000.8 hPa | 0 mm | - | 331 W/m² | - |
| 1777927208 | 19.44° C | 46% | 1000.8 hPa | 0 mm | - | 320 W/m² | - |
* Rain latest hour (hover to see other rain measurements)
** Current wind speed in m/s (hover to see current wind gust speed)